This demonstration page uses our WeatherBlox Daily Observations layout. Learn more.

Left ArrowRight Arrow

40.92945, -100.16068

Hourly Observations for April 13, 2021

Temp ( °F °C ) Dew Point ( °F °C ) Humidity (%) Winds ( mph kmh ) Pressure ( in mb ) Visibility ( mi km ) Precip ( " mm )
12:15 am 00:15 Clear 30 -1.1 21 -6 70 70 W 7 11 30.33 1027 10 16.0934 0 0
12:35 am 00:35 Clear 32 0 23 -5.2 68 68 WNW 8 13 30.32 1027 10 16.0934 0 0
12:55 am 00:55 Clear 30 -0.9 21 -6 69 69 NW 9 15 30.33 1027 10 16.0934 0 0
1:15 am 01:15 Clear 30 -1 21 -6.1 69 69 NW 8 13 30.34 1027 10 16.0934 0 0
1:35 am 01:35 Clear 28 -2.1 20 -6.7 71 71 NW 10 17 30.35 1028 10 16.0934 0 0
1:55 am 01:55 Clear 28 -2.5 20 -6.6 74 74 WNW 5 7 30.35 1028 10 16.0934 0 0
2:15 am 02:15 Clear 29 -1.7 20 -6.4 71 71 WNW 8 13 30.34 1028 10 16.0934 0 0
2:35 am 02:35 Clear 30 -1.3 21 -6.1 70 70 WNW 8 13 30.34 1027 10 16.0934 0 0
2:55 am 02:55 Clear 28 -2.2 20 -6.6 72 72 WNW 6 9 30.35 1028 10 16.0934 0 0
3:15 am 03:15 Clear 25 -3.8 19 -7.3 77 77 NW 6 9 30.37 1028 10 16.0934 0 0
3:35 am 03:35 Clear 26 -3.4 19 -7.3 75 75 NW 9 15 30.36 1028 10 16.0934 0 0
3:55 am 03:55 Clear 27 -2.8 19 -7 73 73 NW 8 13 30.37 1028 10 16.0934 0 0
4:15 am 04:15 Clear 26 -3.2 19 -7.2 74 74 NW 9 15 30.36 1028 10 16.0934 0 0
4:35 am 04:35 Clear 26 -3.5 19 -7.5 74 74 NW 7 11 30.37 1029 10 16.0934 0 0
4:55 am 04:55 Mostly Cloudy 27 -3 20 -6.6 76 76 W 6 9 30.37 1028 10 16.0934 0 0
5:15 am 05:15 Cloudy 28 -2.3 20 -6.4 74 74 WNW 9 15 30.36 1028 10 16.0934 0 0
5:35 am 05:35 Cloudy 29 -1.5 21 -6 72 72 WNW 7 11 30.35 1028 10 16.0934 0 0
5:55 am 05:55 Cloudy 30 -1.1 22 -5.8 71 71 WNW 8 13 30.35 1028 10 16.0934 0 0
6:15 am 06:15 Cloudy 31 -0.7 22 -5.7 69 69 WNW 8 13 30.34 1028 10 16.0934 0 0
6:35 am 06:35 Cloudy 31 -0.5 22 -5.6 69 69 WNW 9 15 30.34 1028 10 16.0934 0 0
6:55 am 06:55 Cloudy 31 -0.5 22 -5.5 69 69 WNW 9 15 30.35 1028 10 16.0934 0 0
7:15 am 07:15 Cloudy 32 0 22 -5.7 66 66 WNW 9 15 30.36 1028 10 16.0934 0 0
7:35 am 07:35 Cloudy 32 0.1 22 -5.7 65 65 NW 9 15 30.36 1028 10 16.0934 0 0
7:55 am 07:55 Cloudy 32 0.2 22 -5.7 65 65 NW 12 19 30.37 1028 10 16.0934 0 0
8:15 am 08:15 Cloudy 33 0.4 22 -5.5 65 65 NW 10 17 30.36 1028 10 16.0934 0 0
8:35 am 08:35 Cloudy 34 1 22 -5.4 63 63 WNW 10 17 30.36 1028 10 16.0934 0 0
8:55 am 08:55 Cloudy 34 1.3 22 -5.5 61 61 WNW 12 19 30.36 1028 10 16.0934 0 0
9:15 am 09:15 Cloudy 35 1.8 22 -5.6 58 58 NW 10 17 30.37 1028 10 16.0934 0 0
9:35 am 09:35 Cloudy 36 2.3 22 -5.5 57 57 WNW 10 17 30.36 1028 10 16.0934 0 0
9:55 am 09:55 Cloudy 37 2.7 22 -5.5 55 55 NW 8 13 30.36 1028 10 16.0934 0 0
10:15 am 10:15 Cloudy 38 3.3 22 -5.5 53 53 WNW 8 13 30.35 1028 10 16.0934 0 0
10:35 am 10:35 Cloudy 39 4 22 -5.5 50 50 WNW 7 11 30.34 1027 10 16.0934 0 0
10:55 am 10:55 Cloudy 40 4.4 22 -5.5 49 49 WNW 8 13 30.33 1027 10 16.0934 0 0
11:15 am 11:15 Cloudy 41 5.1 22 -5.6 46 46 NW 7 11 30.34 1027 10 16.0934 0 0
11:35 am 11:35 Cloudy 42 5.6 22 -5.6 45 45 W 8 13 30.33 1027 10 16.0934 0 0
11:55 am 11:55 Cloudy 43 6.2 22 -5.3 44 44 NW 6 9 30.32 1027 10 16.0934 0 0
12:15 pm 12:15 Cloudy 45 7.2 22 -5.3 41 41 W 13 20 30.31 1026 10 16.0934 0 0
12:35 pm 12:35 Cloudy 45 7 22 -5.5 41 41 WNW 9 15 30.3 1026 10 16.0934 0 0
12:55 pm 12:55 Cloudy 45 7.3 22 -5.5 40 40 WNW 9 15 30.29 1026 10 16.0934 0 0
1:15 pm 13:15 Cloudy 47 8.2 22 -5.7 37 37 NW 10 17 30.27 1025 10 16.0934 0 0
1:35 pm 13:35 Cloudy 45 7.1 21 -5.9 39 39 W 3 6 30.28 1025 10 16.0934 0 0
1:55 pm 13:55 Cloudy 48 8.8 22 -5.4 36 36 WNW 12 19 30.25 1024 10 16.0934 0 0
2:15 pm 14:15 Partly Cloudy 49 9.4 22 -5.7 34 34 NNW 9 15 30.23 1024 10 16.0934 0 0
2:35 pm 14:35 Sunny 50 10.1 22 -5.5 33 33 W 8 13 30.21 1023 10 16.0934 0 0
2:55 pm 14:55 Sunny 50 10.2 21 -5.9 32 32 NW 9 15 30.2 1023 10 16.0934 0 0
3:15 pm 15:15 Sunny 52 11 21 -5.9 30 30 W 9 15 30.18 1022 10 16.0934 0 0
3:35 pm 15:35 Sunny 53 11.4 20 -6.5 28 28 WNW 14 22 30.17 1022 10 16.0934 0 0
3:55 pm 15:55 Partly Cloudy 54 12.3 20 -6.4 27 27 W 10 17 30.15 1021 10 16.0934 0 0
4:15 pm 16:15 Partly Cloudy 56 13.1 21 -6.1 26 26 WNW 15 24 30.14 1021 10 16.0934 0 0
4:35 pm 16:35 Sunny 55 13 20 -6.7 25 25 W 15 24 30.13 1020 10 16.0934 0 0
4:55 pm 16:55 Partly Cloudy 56 13.1 20 -6.8 25 25 WNW 14 22 30.12 1020 10 16.0934 0 0
5:15 pm 17:15 Sunny 55 12.7 20 -6.8 25 25 W 15 24 30.13 1020 10 16.0934 0 0
5:35 pm 17:35 Sunny 55 12.9 20 -6.8 25 25 W 15 24 30.11 1020 10 16.0934 0 0
5:55 pm 17:55 Partly Cloudy 56 13.2 20 -6.5 25 25 WNW 18 30 30.11 1020 10 16.0934 0 0
6:15 pm 18:15 Partly Cloudy 55 12.8 20 -6.6 25 25 WNW 15 24 30.12 1020 10 16.0934 0 0
6:35 pm 18:35 Partly Cloudy 54 12.3 20 -6.6 26 26 NW 15 24 30.13 1020 10 16.0934 0 0
6:55 pm 18:55 Sunny 54 12.1 20 -6.6 27 27 WNW 14 22 30.13 1020 10 16.0934 0 0
7:15 pm 19:15 Sunny 54 12 20 -6.5 27 27 W 13 20 30.13 1020 10 16.0934 0 0
7:35 pm 19:35 Sunny 53 11.4 21 -6.2 29 29 W 12 19 30.14 1021 10 16.0934 0 0
7:55 pm 19:55 Sunny 51 10.5 21 -5.9 31 31 WNW 9 15 30.15 1021 10 16.0934 0 0
8:15 pm 20:15 Sunny 48 8.8 23 -5.1 37 37 WNW 9 15 30.17 1022 10 16.0934 0 0
8:35 pm 20:35 Clear 45 7 24 -4.7 43 43 WNW 9 15 30.2 1023 10 16.0934 0 0
8:55 pm 20:55 Clear 43 6 22 -5.3 45 45 WNW 8 13 30.22 1023 10 16.0934 0 0
9:15 pm 21:15 Clear 39 4.1 23 -5.1 52 52 NW 7 11 30.24 1024 10 16.0934 0 0
9:35 pm 21:35 Clear 38 3.5 22 -5.6 52 52 NW 6 9 30.25 1024 10 16.0934 0 0
9:55 pm 21:55 Clear 36 2.4 22 -5.6 56 56 NW 6 9 30.27 1025 10 16.0934 0 0
10:15 pm 22:15 Clear 36 2.2 21 -6 55 55 NW 6 9 30.28 1025 10 16.0934 0 0
10:35 pm 22:35 Clear 37 3 21 -6.2 51 51 NNE 10 17 30.28 1025 10 16.0934 0 0
10:55 pm 22:55 Clear 40 4.4 23 -5.2 50 50 NNE 12 19 30.28 1026 10 16.0934 0 0
11:15 pm 23:15 Clear 40 4.2 23 -5.2 51 51 NNE 12 19 30.3 1026 10 16.0934 0 0
11:35 pm 23:35 Clear 38 3.3 23 -5.2 54 54 NNE 9 15 30.32 1027 10 16.0934 0 0
11:55 pm 23:55 Clear 37 2.6 23 -5.2 57 57 NNE 8 13 30.33 1027 10 16.0934 0 0

Powered by AerisWeather